Waarnemingen

Advertentie
Mijn weer
Pisa/S. Giusto, Italië (16158): temperatuur & dauwpunt: 19.11.2017 02:00:00 - 25.11.2017 02:00:00 (CET)Pisa/S. Giusto, Italië (16158): windsnelheid: 19.11.2017 02:00:00 - 25.11.2017 02:00:00 (CET)Pisa/S. Giusto, Italië (16158): windrichting: 19.11.2017 02:00:00 - 25.11.2017 02:00:00 (CET)Pisa/S. Giusto, Italië (16158): luchtdruk: 19.11.2017 02:00:00 - 25.11.2017 02:00:00 (CET)Pisa/S. Giusto, Italië (16158): zicht: 19.11.2017 02:00:00 - 25.11.2017 02:00:00 (CET)Pisa/S. Giusto, Italië (16158): Zonneschijnduur: 19.11.2017 02:00:00 - 25.11.2017 02:00:00 (CET)
Datum & Tijd tt [°C] td [°C] ff [km/u] ff [kn] dd ppp [hPa] vv [km] sd [min]
25.11.2017 02:00:00 10,0 9,0 8 4 OZO - 6 -
25.11.2017 01:00:00 10,0 9,4 8 4 OZO 1020,5 6 -
25.11.2017 00:00:00 10,0 9,0 8 4 OZO - 5 -
24.11.2017 23:00:00 10,0 9,0 8 4 ZO - 5 -
24.11.2017 22:00:00 10,0 9,2 5 3 OZO 1021,2 5 -
24.11.2017 21:00:00 10,0 9,0 5 3 OZO - 5 -
24.11.2017 20:00:00 10,0 10,0 4 2 O - 6 -
24.11.2017 19:00:00 11,0 10,4 4 2 OZO 1020,8 6 -
24.11.2017 18:00:00 12,0 11,0 4 2 ZO - 7 -
24.11.2017 17:00:00 14,0 11,0 2 1 Z - 10 -
24.11.2017 16:00:00 15,0 11,6 4 2 ZO 1021,1 10 18
24.11.2017 15:00:00 15,0 12,0 2 1 ZZW - 10 -
24.11.2017 14:00:00 15,0 11,0 4 2 ZO - 10 -
24.11.2017 13:00:00 15,0 11,2 8 4 ZO 1021,8 10 48
24.11.2017 12:00:00 15,0 11,0 9 5 OZO - 10 -
24.11.2017 11:00:00 13,0 11,0 8 4 ZO - 10 -
24.11.2017 10:00:00 11,0 10,2 4 2 NO 1022,2 10 0
24.11.2017 09:00:00 10,0 10,0 4 2 O - 10 -
24.11.2017 08:00:00 8,0 8,0 9 5 OZO - 5 -
24.11.2017 07:00:00 7,4 7,0 5 3 ZZO 1021,6 2,0 -
24.11.2017 06:00:00 8,0 8,0 8 4 ZZO - 4,0 -
24.11.2017 05:00:00 9,0 8,0 9 5 ZO - 7 -
24.11.2017 04:00:00 7,8 7,4 4 2 - 1021,4 5 -
24.11.2017 03:00:00 8,0 8,0 5 3 ZO - 4,0 -
24.11.2017 02:00:00 10,0 9,0 4 2 O - 7 -
24.11.2017 01:00:00 9,0 8,6 5 3 OZO 1021,6 7 -
24.11.2017 00:00:00 9,0 9,0 9 5 O - 7 -
23.11.2017 23:00:00 9,0 9,0 8 4 O - 5 -
23.11.2017 22:00:00 10,0 9,5 8 4 O 1021,5 5 -
23.11.2017 21:00:00 9,0 9,0 8 4 O - 6 -
23.11.2017 20:00:00 10,0 10,0 2 1 - - 6 -
23.11.2017 19:00:00 11,4 10,1 4 2 OZO 1020,8 6 -
23.11.2017 18:00:00 12,0 11,0 8 4 O - 10 -
23.11.2017 17:00:00 14,0 11,0 4 2 OZO - 10 -
23.11.2017 16:00:00 15,2 10,8 5 3 OZO 1020,2 10 48
23.11.2017 15:00:00 15,0 11,0 8 4 OZO - 10 -
23.11.2017 14:00:00 16,0 11,0 9 5 ZO - 10 -
23.11.2017 13:00:00 14,2 10,0 13 7 OZO 1020,7 10 36
23.11.2017 12:00:00 14,0 10,0 16 9 OZO - 10 -
23.11.2017 11:00:00 13,0 10,0 15 8 OZO - 10 -
23.11.2017 10:00:00 8,6 7,8 13 7 OZO 1021,1 10 60
23.11.2017 09:00:00 8,0 7,0 5 3 ZO - 8 -
23.11.2017 08:00:00 6,0 6,0 4 2 OZO - 6 -
23.11.2017 07:00:00 7,2 7,1 9 5 ZO 1019,4 7 -
23.11.2017 06:00:00 7,0 7,0 8 4 O - 10 -
23.11.2017 05:00:00 8,0 8,0 8 4 OZO - 10 -
23.11.2017 04:00:00 8,0 7,9 9 5 NO 1020,0 10 -
23.11.2017 03:00:00 8,0 8,0 8 4 OZO - 10 -
23.11.2017 02:00:00 9,0 9,0 11 6 OZO - 10 -
23.11.2017 01:00:00 8,2 7,9 9 5 OZO 1020,0 10 -
23.11.2017 00:00:00 8,0 8,0 9 5 O - 10 -
22.11.2017 23:00:00 9,0 8,0 9 5 O - 10 -
22.11.2017 22:00:00 10,4 9,0 8 4 OZO 1019,9 10 -
22.11.2017 21:00:00 11,0 10,0 5 3 ZO - 10 -
22.11.2017 20:00:00 12,0 10,0 4 2 OZO - 10 -
22.11.2017 19:00:00 12,6 10,5 4 2 - 1019,6 10 -
22.11.2017 18:00:00 13,0 10,0 5 3 ZZW - 10 -
22.11.2017 17:00:00 14,0 10,0 5 3 N - 10 -
22.11.2017 16:00:00 14,0 10,4 8 4 OZO 1019,1 10 6
22.11.2017 15:00:00 14,0 11,0 11 6 ZO - 10 -
22.11.2017 14:00:00 14,0 9,0 8 4 ZZO - 10 -
22.11.2017 13:00:00 13,8 9,1 9 5 ZO 1019,8 10 60
22.11.2017 12:00:00 13,0 8,0 9 5 OZO - 10 -
22.11.2017 11:00:00 11,0 8,0 15 8 OZO - 10 -
22.11.2017 10:00:00 10,0 8,1 8 4 ZO 1020,3 10 0
22.11.2017 09:00:00 9,0 8,0 9 5 O - 10 -
22.11.2017 08:00:00 8,0 8,0 13 7 ZO - 10 -
22.11.2017 07:00:00 8,0 7,3 8 4 ZZO 1019,8 10 0
22.11.2017 06:00:00 9,0 8,0 9 5 OZO - 10 -
22.11.2017 05:00:00 9,0 8,0 8 4 O - 10 -
22.11.2017 04:00:00 7,6 7,2 9 5 ZZO 1019,9 10 -
22.11.2017 03:00:00 7,0 7,0 8 4 ZZO - 10 -
22.11.2017 02:00:00 8,0 8,0 8 4 ZZO - 10 -
22.11.2017 01:00:00 7,0 6,7 11 6 OZO 1020,6 10 -
22.11.2017 00:00:00 7,0 7,0 11 6 OZO - 10 -
21.11.2017 23:00:00 7,0 7,0 5 3 OZO - 10 -
21.11.2017 22:00:00 7,0 6,9 4 2 ZO 1020,6 10 -
21.11.2017 21:00:00 7,0 6,0 8 4 OZO - 10 -
21.11.2017 20:00:00 8,0 8,0 11 6 OZO - 10 -
21.11.2017 19:00:00 9,0 8,4 4 2 O 1019,8 10 -
21.11.2017 18:00:00 10,0 9,0 8 4 ZO - 10 -
21.11.2017 17:00:00 12,0 10,0 5 3 ZO - 10 -
21.11.2017 16:00:00 13,6 10,2 5 3 ZO 1019,4 10 30
21.11.2017 15:00:00 13,0 10,0 2 1 ZZO - 10 -
21.11.2017 14:00:00 12,0 9,0 4 2 OZO - 10 -
21.11.2017 13:00:00 11,0 8,6 4 2 NO 1019,8 10 0
21.11.2017 12:00:00 11,0 8,0 4 2 NO - 10 -
21.11.2017 11:00:00 11,0 7,0 4 2 NO - 10 -
21.11.2017 10:00:00 9,0 5,2 5 3 OZO 1019,8 10 12
21.11.2017 09:00:00 9,0 5,0 8 4 OZO - 10 -
21.11.2017 08:00:00 8,0 4,0 5 3 OZO - 10 -
21.11.2017 07:00:00 8,0 4,8 5 3 ZO 1018,8 10 0
21.11.2017 06:00:00 8,0 4,0 9 5 OZO - 10 -
21.11.2017 05:00:00 8,0 4,0 9 5 ZO - 10 -
21.11.2017 04:00:00 8,0 4,4 11 6 OZO 1019,2 10 -
21.11.2017 03:00:00 8,0 5,0 9 5 ZO - 10 -
21.11.2017 02:00:00 8,0 5,0 4 2 ONO - 10 -
21.11.2017 01:00:00 8,0 4,9 8 4 ZO 1019,7 10 -
21.11.2017 00:00:00 8,0 4,0 5 3 ONO - 10 -
20.11.2017 23:00:00 8,0 5,0 8 4 OZO - 10 -
20.11.2017 22:00:00 8,0 5,1 9 5 OZO 1019,6 10 -
20.11.2017 21:00:00 9,0 6,0 4 2 O - 10 -
20.11.2017 20:00:00 8,0 5,0 9 5 OZO - 10 -
20.11.2017 19:00:00 8,6 4,1 4 2 O 1018,9 10 0
20.11.2017 18:00:00 11,0 6,0 8 4 O - 10 -
20.11.2017 17:00:00 12,0 4,0 4 2 OZO - 10 -
20.11.2017 16:00:00 14,4 -0,9 5 3 ZZO 1019,0 10 60
20.11.2017 15:00:00 14,0 0,0 8 4 ZO - 10 -
20.11.2017 14:00:00 14,0 -2,0 9 5 ZZO - 10 -
20.11.2017 13:00:00 14,2 -3,6 9 5 ZO 1020,3 10 60
20.11.2017 12:00:00 14,0 -3,0 13 7 O - 10 -
20.11.2017 11:00:00 12,0 0,0 13 7 O - 10 -
20.11.2017 10:00:00 7,4 5,9 13 7 OZO 1021,2 10 60
20.11.2017 09:00:00 2,0 2,0 8 4 O - 10 -
20.11.2017 08:00:00 2,0 2,0 13 7 O - 10 -
20.11.2017 07:00:00 3,2 3,1 8 4 O 1019,4 6 0
20.11.2017 06:00:00 4,0 4,0 11 6 O - 5 -
20.11.2017 05:00:00 5,0 5,0 9 5 O - 5 -
20.11.2017 04:00:00 5,6 5,6 11 6 Z 1018,1 5 -
20.11.2017 03:00:00 5,0 5,0 5 3 ZW - 4,0 -
20.11.2017 02:00:00 5,0 5,0 8 4 ZZO - 2,5 -
20.11.2017 01:00:00 5,2 5,2 8 4 ZO 1017,3 2,5 -
20.11.2017 00:00:00 5,0 5,0 5 3 ZZO - 2,5 -
19.11.2017 23:00:00 5,0 5,0 9 5 OZO - 3,0 -
19.11.2017 22:00:00 6,6 6,6 2 1 NNO 1015,5 0,8 -
19.11.2017 21:00:00 7,0 7,0 0 0 N - 1,2 -
19.11.2017 20:00:00 8,0 8,0 4 2 ZW - 1,0 -
19.11.2017 19:00:00 8,8 8,4 2 1 ZW 1014,7 7 -
19.11.2017 18:00:00 9,0 8,0 2 1 ZZW - 10 -
19.11.2017 17:00:00 11,0 9,0 9 5 W - 10 -
19.11.2017 16:00:00 14,0 9,4 8 4 W 1013,6 10 60
19.11.2017 15:00:00 15,0 9,0 11 6 WNW - 10 -
19.11.2017 14:00:00 14,0 9,0 5 3 WZW - 10 -
19.11.2017 13:00:00 12,0 6,3 2 1 Z 1014,7 10 60
19.11.2017 12:00:00 11,0 6,0 5 3 OZO - 10 -
19.11.2017 11:00:00 10,0 5,0 9 5 OZO - 10 -
19.11.2017 10:00:00 5,8 4,9 9 5 OZO 1015,4 10 0
19.11.2017 09:00:00 5,0 5,0 9 5 O - 10 -
19.11.2017 08:00:00 4,0 4,0 9 5 ZO - 10 -
19.11.2017 07:00:00 3,6 3,6 9 5 ZZO 1015,6 10 0
19.11.2017 06:00:00 4,0 4,0 8 4 ZZO - 10 -
19.11.2017 05:00:00 4,0 3,0 9 5 ZO - 10 -
19.11.2017 04:00:00 4,8 4,5 5 3 OZO 1015,8 10 -
19.11.2017 03:00:00 5,0 5,0 4 2 - - 10 -
19.11.2017 02:00:00 6,0 5,0 4 2 OZO - 10 -

tt = temperatuur
td = dauwpunt
ff = windsnelheid
dd = windrichting
ppp = luchtdruk
vv = zicht
sd = Zonneschijnduur

Weerstations in de omgeving